{"data":{"norad_id":53489,"intl_designator":"2022-099AA","name":"STARLINK-4392","alt_names":[],"object_type":"PAYLOAD","status":"ACTIVE","operator":null,"country":"US","launch_date":"2022-08-12","launch_site_code":"AFWTR","launch_vehicle":null,"mission":null,"orbit_class":"UNKNOWN","rcs_meters":null,"size_class":null,"mass_kg":null,"dimensions":null,"purposes":["comms"],"wikipedia_slug":null,"has_3d_model":false,"image_url":null,"decayed_at":null,"tle_current":{"epoch":"2026-09-20T22:00:03.000096Z","epoch_age_seconds":42286,"freshness":"FRESH","line1":"1 53489U 22099AA  26263.91670139 -.00012973  00000+0 -63080-3 0  9999","line2":"2 53489  97.2852  17.8499 0002549  23.1863 325.8935 15.18316557  5333","mean_motion":15.18316557,"eccentricity":0.0002549,"inclination_deg":97.2852,"raan_deg":17.8499,"arg_perigee_deg":23.1863,"mean_anomaly_deg":325.8935,"bstar":-0.0006308,"rev_number":533,"period_min":94.841882172796,"perigee_km":509.17208675674,"apogee_km":512.68413214954,"semimajor_km":6889.0651094531,"source":"CELESTRAK","updated_at":"2026-09-21T09:00:32.892836Z"}}}